International Skating Union - Official Site

ESSENT ISU WORLD DISTANCES CHAMPIONSHIPS 2012
March 22-25, 2012

Draw | Lap Times | Index | World Cup

Referee: Erik  ØSMUNDSET  (NOR)
Starter: Jan  ZWIER  (NED)
StartTime: EndTime: Air Temp: Ice Temp: Humidity:
17:19 17:41
Result Team Pursuit Men
Rankings as of Mar 25 2012 5:41PM
Rank: No.: Team: Nation: Time: Behind: Points:
Total 8
1 1 Netherlands (45) Sven KRAMER (51) Koen VERWEIJ (41) Jan BLOKHUIJSEN (0)   NED NED 3:41.430.5 - 17.12 - (17.1)
1.0 - 30.32 - (13.1)
1.5 - 43.49 - (13.1)
2.0 - 57.22 - (13.7)
2.5 - 1:10.63 - (13.4)
3.0 - 1:24.37 - (13.7)
3.5 - 1:37.97 - (13.6)
4.0 - 1:51.65 - (13.6)
4.5 - 2:05.53 - (13.8)
5.0 - 2:18.99 - (13.4)
5.5 - 2:32.51 - (13.5)
6.0 - 2:46.62 - (14.1)
6.5 - 3:00.14 - (13.5)
7.0 - 3:13.97 - (13.8)
7.5 - 3:27.38 - (13.4)
8.0 - 3:41.43 - (13.6)
2 4 USA (75) Shani DAVIS (77) Brian HANSEN (78) Jonathan KUCK (0)   USA USA 3:43.420.5 - 17.48 - (17.4)
1.0 - 30.72 - (13.2)
1.5 - 44.00 - (13.2)
2.0 - 57.32 - (13.3)
2.5 - 1:10.74 - (13.4)
3.0 - 1:24.02 - (13.2)
3.5 - 1:37.38 - (13.3)
4.0 - 1:51.16 - (13.7)
4.5 - 2:05.03 - (13.8)
5.0 - 2:19.34 - (14.3)
5.5 - 2:33.39 - (14.0)
6.0 - 2:47.53 - (14.1)
6.5 - 3:01.33 - (13.7)
7.0 - 3:15.15 - (13.8)
7.5 - 3:29.21 - (14.0)
8.0 - 3:43.42 - (14.2)
1.99
3 5 Russia (71) Ivan SKOBREV (73) Denis YUSKOV (68) Yevgeny LALENKOV (0)   RUS RUS 3:43.620.5 - 17.77 - (17.7)
1.0 - 31.35 - (13.5)
1.5 - 44.99 - (13.6)
2.0 - 58.81 - (13.8)
2.5 - 1:12.30 - (13.4)
3.0 - 1:25.71 - (13.4)
3.5 - 1:39.39 - (13.6)
4.0 - 1:52.98 - (13.5)
4.5 - 2:06.51 - (13.5)
5.0 - 2:20.27 - (13.7)
5.5 - 2:33.96 - (13.6)
6.0 - 2:47.93 - (13.9)
6.5 - 3:01.74 - (13.8)
7.0 - 3:15.76 - (14.0)
7.5 - 3:29.39 - (13.6)
8.0 - 3:43.62 - (13.9)
2.19
4 7 Canada (10) Denny MORRISON (6) Mathieu GIROUX (9) Lucas MAKOWSKY (0)   CAN CAN 3:44.380.5 - 17.11 - (17.1)
1.0 - 29.99 - (12.8)
1.5 - 42.70 - (12.7)
2.0 - 55.98 - (13.2)
2.5 - 1:09.58 - (13.6)
3.0 - 1:23.11 - (13.5)
3.5 - 1:36.92 - (13.8)
4.0 - 1:51.09 - (14.1)
4.5 - 2:05.21 - (14.1)
5.0 - 2:19.09 - (13.8)
5.5 - 2:32.99 - (13.9)
6.0 - 2:47.12 - (14.1)
6.5 - 3:01.34 - (14.2)
7.0 - 3:15.62 - (14.2)
7.5 - 3:29.75 - (14.1)
8.0 - 3:44.38 - (14.4)
2.95
5 8 Norway (59) Sverre LUNDE PEDERSEN (54) Håvard BØKKO (55) Kristian Reistad FREDRIKSEN (0)   NOR NOR 3:46.330.5 - 17.44 - (17.4)
1.0 - 30.94 - (13.5)
1.5 - 44.26 - (13.3)
2.0 - 57.96 - (13.7)
2.5 - 1:11.59 - (13.6)
3.0 - 1:25.33 - (13.7)
3.5 - 1:39.02 - (13.7)
4.0 - 1:52.90 - (13.8)
4.5 - 2:06.69 - (13.7)
5.0 - 2:20.68 - (13.9)
5.5 - 2:34.77 - (14.1)
6.0 - 2:49.17 - (14.4)
6.5 - 3:03.23 - (14.0)
7.0 - 3:17.52 - (14.2)
7.5 - 3:31.88 - (14.3)
8.0 - 3:46.33 - (14.1)
4.90
6 3 Germany (20) Patrick BECKERT (25) Marco WEBER (23) Robert LEHMANN (0)   GER GER 3:46.480.5 - 17.87 - (17.8)
1.0 - 31.37 - (13.5)
1.5 - 44.68 - (13.3)
2.0 - 58.30 - (13.6)
2.5 - 1:11.93 - (13.6)
3.0 - 1:25.62 - (13.7)
3.5 - 1:39.45 - (13.8)
4.0 - 1:53.16 - (13.7)
4.5 - 2:07.15 - (13.9)
5.0 - 2:21.20 - (14.0)
5.5 - 2:34.97 - (13.7)
6.0 - 2:49.08 - (14.1)
6.5 - 3:03.25 - (14.1)
7.0 - 3:17.49 - (14.2)
7.5 - 3:31.84 - (14.3)
8.0 - 3:46.48 - (14.4)
5.05
7 2 Korea (38) Seung-Hoon LEE (35) Byung-Wook KO (34) Hyung-Joon JOO (0)   KOR KOR 3:47.180.5 - 17.77 - (17.7)
1.0 - 31.31 - (13.5)
1.5 - 44.83 - (13.5)
2.0 - 58.49 - (13.6)
2.5 - 1:12.25 - (13.7)
3.0 - 1:26.06 - (13.8)
3.5 - 1:39.90 - (13.8)
4.0 - 1:54.06 - (14.1)
4.5 - 2:08.19 - (14.1)
5.0 - 2:22.20 - (14.0)
5.5 - 2:36.56 - (14.3)
6.0 - 2:51.10 - (14.5)
6.5 - 3:06.04 - (14.6)
7.0 - 3:19.95 - (13.9)
7.5 - 3:33.61 - (13.6)
8.0 - 3:47.18 - (13.5)
5.75
8 6 Poland (61) Zbigniew BRODKA (63) Konrad NIEDZWIEDZKI (64) Jan SZYMANSKI (0)   POL POL 3:47.720.5 - 17.57 - (17.5)
1.0 - 30.88 - (13.3)
1.5 - 44.08 - (13.2)
2.0 - 57.54 - (13.4)
2.5 - 1:11.01 - (13.4)
3.0 - 1:24.77 - (13.7)
3.5 - 1:38.13 - (13.3)
4.0 - 1:51.91 - (13.7)
4.5 - 2:05.75 - (13.8)
5.0 - 2:20.01 - (14.2)
5.5 - 2:34.36 - (14.3)
6.0 - 2:48.99 - (14.6)
6.5 - 3:03.44 - (14.4)
7.0 - 3:18.27 - (14.8)
7.5 - 3:33.11 - (14.8)
8.0 - 3:47.72 - (14.4)
6.29